Regional Weather Roundup
Issued by NWS State College, PA

Home | Current Version | Previous Version | Graphics & Text | Print | Product List | Glossary Off
Versions: 1 2 3 4 5 6 7 8 9 10 11 12 13 14 15 16 17 18 19 20 21 22 23 24 25 26 27 28 29 30 31 32 33 34 35 36 37 38 39 40 41 42 43 44 45 46 47 48 49 50

000
ASUS41 KCTP 211210
RWRCTP

REGIONAL WEATHER ROUNDUP
NATIONAL WEATHER SERVICE STATE COLLEGE PA
800 AM EDT TUE APR 21 2015

Note: "fair" indicates few or no clouds below 12,000 feet with no
significant weather and/or obstructions to visibility.

* = STATION THAT DOES NOT REPORT PRECIPITATION /E.G. RAIN...SNOW...ETC/
    THUNDER OR FOG.

PAZ002>004-007>009-013>016-020>023-029>032-211300-
WESTERN PENNSYLVANIA

CITY           SKY/WX    TMP DP  RH WIND       PRES   REMARKS
ERIE           MOSUNNY   44  31  60 SW16G24   29.66S
MEADVILLE      CLOUDY    43  31  62 SW9       29.68R
FRANKLIN*      MOSUNNY   43  30  61 SW10G16   29.71S
NEW CASTLE     FAIR      46  35  65 SW8       29.74R
BEAVER COUNTY  MOSUNNY   41  34  75 SW9       29.74S
BUTLER*        MOSUNNY   43  34  70 SW12      29.76R
PITTSBURGH INT LGT RAIN  40  35  83 W7        29.75R
PITTSBURGH     MOSUNNY   46  31  55 SW13      29.75R
INDIANA*       PTSUNNY   46  32  57 W13G20    29.77S
LATROBE        MOSUNNY   46  36  66 W12G17    29.77S
WASHINGTON CO* MOSUNNY   45  32  61 SW12      29.79R
$$

PAZ004>006-010>012-017>019-024>028-033>037-041-042-045-046-049>053-211300-
CENTRAL PENNSYLVANIA

CITY           SKY/WX    TMP DP  RH WIND       PRES   REMARKS
BRADFORD       MOSUNNY   40  29  64 W13G21    29.65R
DUBOIS         MOSUNNY   45  30  55 W16       29.69R
CLEARFIELD     PTSUNNY   45  31  58 W15G22    29.70R
JOHNSTOWN      PTSUNNY   41  30  65 W9        29.72R
ALTOONA        PTSUNNY   45  31  58 W15G21    29.74R
STATE COLLEGE  MOSUNNY   46  36  66 SW8       29.71R
WILLIAMSPORT   MOSUNNY   50  37  61 W9        29.68R
SELINSGROVE    MOSUNNY   51  37  58 W5        29.72R
FT INDIANTOWN  CLOUDY    53  36  52 W10       29.70R
CAPITAL CITY   MOSUNNY   54  40  59 W8        29.71R
HARRISBURG     MOSUNNY   54  41  61 W8        29.71R
YORK           SUNNY     54  42  64 W7        29.72R
$$

PAZ038>040-043-044-047-048-054-055-060>062-067>071-211300-
EASTERN PENNSYLVANIA

CITY           SKY/WX    TMP DP  RH WIND       PRES   REMARKS
SCRANTON       LGT RAIN  50  42  74 W9        29.67R
MOUNT POCONO   LGT RAIN  46  41  82 W20G29    29.64R
ALLENTOWN      CLOUDY    53  43  68 NW12G18   29.68R
QUAKERTOWN*    CLOUDY    52  45  76 W6        29.70R
READING        CLOUDY    53  45  74 CALM      29.69R
LANCASTER      CLOUDY    52  44  74 W8        29.70R
COATESVILLE    CLOUDY    52  46  82 NW13      29.71R
POTTSTOWN      CLOUDY    53  45  74 W7        29.70R
BLUE BELL      MOSUNNY   54  48  82 W9G24     29.69R
DOYLESTOWN     LGT RAIN  50  47  89 NW16G29   29.68R
WILLOW GROVE   NOT AVBL
NORTH PHILA    PTSUNNY   57  49  74 W20       29.70R
PHILADELPHIA   PTSUNNY   58  49  72 NW24G35   29.69R
$$



USA.gov is the U.S. government's official web portal to all federal, state and local government web resources and services.